| time (UTC) | temp F | wind direction | speed MPH | gust MPH | rain 1hr in | rain 24hr in | rain mn in | humidity % | barometer mb |
| 20260509152538 | 86 | 0 | 1.0 | 5.0 | 0.00 | 0.00 | 0.00 | 86 | 1009.7 |
| 20260509152041 | 85 | 100 | 2.0 | 8.0 | 0.00 | 0.00 | 0.00 | 86 | 1009.7 |
| 20260509151552 | 85 | 46 | 2.0 | 8.0 | 0.00 | 0.00 | 0.00 | 87 | 1009.7 |
| 20260509151041 | 85 | 101 | 3.0 | 7.0 | 0.00 | 0.00 | 0.00 | 87 | 1009.7 |
| 20260509150540 | 85 | 157 | 2.0 | 7.0 | 0.00 | 0.00 | 0.00 | 86 | 1009.6 |
| 20260509150050 | 85 | 67 | 1.0 | 7.0 | 0.00 | 0.00 | 0.00 | 87 | 1009.5 |
| 20260509145541 | 84 | 113 | 3.0 | 7.0 | 0.00 | 0.00 | 0.00 | 86 | 1009.6 |
| 20260509145041 | 84 | 159 | 2.0 | 4.0 | 0.00 | 0.00 | 0.00 | 87 | 1009.7 |
| 20260509144552 | 84 | 0 | 0.0 | 2.0 | 0.00 | 0.00 | 0.00 | 87 | 1009.7 |
| 20260509144040 | 84 | 306 | 0.0 | 0.0 | 0.00 | 0.00 | 0.00 | 88 | 1009.7 |
| 20260509143540 | 83 | 0 | 0.0 | 4.0 | 0.00 | 0.00 | 0.00 | 88 | 1009.9 |
| 20260509143052 | 83 | 0 | 0.0 | 5.0 | 0.00 | 0.00 | 0.00 | 88 | 1009.9 |
| 20260509142540 | 83 | 0 | 2.0 | 6.0 | 0.00 | 0.00 | 0.00 | 88 | 1009.8 |
| 20260509142041 | 83 | 319 | 2.0 | 6.0 | 0.00 | 0.00 | 0.00 | 88 | 1009.9 |
| 20260509141551 | 83 | 302 | 1.0 | 6.0 | 0.00 | 0.00 | 0.00 | 88 | 1009.8 |
| 20260509141040 | 83 | 265 | 3.0 | 7.0 | 0.00 | 0.00 | 0.00 | 88 | 1009.8 |
| 20260509140537 | 82 | 0 | 2.0 | 7.0 | 0.00 | 0.00 | 0.00 | 88 | 1009.8 |
| 20260509140052 | 82 | 290 | 2.0 | 4.0 | 0.00 | 0.00 | 0.00 | 88 | 1009.9 |
| 20260509135541 | 82 | 0 | 0.0 | 4.0 | 0.00 | 0.00 | 0.00 | 88 | 1009.6 |
| 20260509135041 | 82 | 263 | 1.0 | 4.0 | 0.00 | 0.00 | 0.00 | 88 | 1009.5 |
| 20260509134554 | 82 | 333 | 1.0 | 5.0 | 0.00 | 0.00 | 0.00 | 88 | 1009.7 |
| 20260509134040 | 82 | 0 | 0.0 | 6.0 | 0.00 | 0.00 | 0.00 | 89 | 1009.7 |
| 20260509133541 | 81 | 285 | 2.0 | 8.0 | 0.00 | 0.00 | 0.00 | 89 | 1009.9 |
| 20260509133100 | 81 | 246 | 4.0 | 8.0 | 0.00 | 0.00 | 0.00 | 89 | 1009.8 |
| 20260509132540 | 81 | 256 | 4.0 | 10.0 | 0.00 | 0.00 | 0.00 | 90 | 1009.8 |
| 20260509132041 | 81 | 249 | 4.0 | 13.0 | 0.00 | 0.00 | 0.00 | 90 | 1009.8 |
| 20260509131546 | 81 | 288 | 6.0 | 13.0 | 0.00 | 0.00 | 0.00 | 89 | 1009.6 |
| 20260509131043 | 81 | 286 | 8.0 | 13.0 | 0.00 | 0.00 | 0.00 | 89 | 1009.5 |
| 20260509130540 | 81 | 260 | 6.0 | 10.0 | 0.00 | 0.00 | 0.00 | 89 | 1009.5 |
| 20260509130049 | 81 | 264 | 3.0 | 7.0 | 0.00 | 0.00 | 0.00 | 89 | 1009.3 |
| 20260509125541 | 82 | 232 | 2.0 | 4.0 | 0.00 | 0.00 | 0.00 | 89 | 1009.1 |
| 20260509125040 | 82 | 252 | 1.0 | 4.0 | 0.00 | 0.00 | 0.00 | 89 | 1009.0 |
| 20260509124600 | 82 | 0 | 1.0 | 4.0 | 0.00 | 0.00 | 0.00 | 89 | 1009.1 |
| 20260509124041 | 82 | 144 | 2.0 | 5.0 | 0.00 | 0.00 | 0.00 | 89 | 1009.1 |
| 20260509123541 | 82 | 196 | 2.0 | 5.0 | 0.00 | 0.00 | 0.00 | 89 | 1009.0 |
| 20260509123048 | 82 | 232 | 2.0 | 5.0 | 0.00 | 0.00 | 0.00 | 89 | 1008.9 |
| 20260509122540 | 82 | 164 | 1.0 | 6.0 | 0.00 | 0.00 | 0.00 | 89 | 1008.9 |
| 20260509122044 | 82 | 194 | 3.0 | 6.0 | 0.00 | 0.00 | 0.00 | 89 | 1008.8 |
| 20260509121552 | 82 | 184 | 1.0 | 7.0 | 0.00 | 0.00 | 0.00 | 90 | 1008.7 |
| 20260509121042 | 82 | 281 | 0.0 | 8.0 | 0.00 | 0.00 | 0.00 | 90 | 1008.8 |
| 20260509120540 | 82 | 232 | 1.0 | 11.0 | 0.00 | 0.00 | 0.00 | 90 | 1008.9 |
| 20260509120051 | 83 | 219 | 3.0 | 12.0 | 0.00 | 0.00 | 0.00 | 90 | 1009.1 |
| 20260509115540 | 83 | 263 | 7.0 | 12.0 | 0.00 | 0.00 | 0.00 | 91 | 1009.1 |
| 20260509115040 | 83 | 261 | 3.0 | 8.0 | 0.00 | 0.00 | 0.00 | 92 | 1009.3 |
| 20260509114556 | 83 | 257 | 2.0 | 7.0 | 0.00 | 0.00 | 0.00 | 92 | 1009.3 |
| 20260509114040 | 83 | 240 | 3.0 | 7.0 | 0.00 | 0.00 | 0.00 | 92 | 1009.3 |
| 20260509113540 | 83 | 226 | 2.0 | 7.0 | 0.00 | 0.00 | 0.00 | 92 | 1009.3 |
| 20260509113045 | 83 | 191 | 2.0 | 6.0 | 0.00 | 0.00 | 0.00 | 92 | 1009.2 |
| 20260509112540 | 83 | 182 | 1.0 | 6.0 | 0.00 | 0.00 | 0.00 | 92 | 1008.8 |
| 20260509112041 | 83 | 223 | 1.0 | 6.0 | 0.00 | 0.00 | 0.00 | 91 | 1008.9 |
| 20260509111544 | 83 | 180 | 2.0 | 6.0 | 0.00 | 0.00 | 0.00 | 91 | 1008.8 |
| 20260509111040 | 83 | 89 | 2.0 | 6.0 | 0.00 | 0.00 | 0.00 | 91 | 1008.6 |
| 20260509110540 | 83 | 168 | 2.0 | 6.0 | 0.00 | 0.00 | 0.00 | 91 | 1008.7 |
| 20260509110054 | 83 | 111 | 2.0 | 5.0 | 0.00 | 0.00 | 0.00 | 91 | 1008.7 |
| 20260509105539 | 83 | 0 | 1.0 | 6.0 | 0.00 | 0.00 | 0.00 | 91 | 1008.8 |
| 20260509105039 | 83 | 133 | 2.0 | 6.0 | 0.00 | 0.00 | 0.00 | 91 | 1008.8 |
| 20260509104549 | 83 | 98 | 3.0 | 6.0 | 0.00 | 0.00 | 0.00 | 91 | 1008.8 |
| 20260509104040 | 83 | 103 | 1.0 | 4.0 | 0.00 | 0.00 | 0.00 | 91 | 1008.8 |
| 20260509103540 | 83 | 97 | 0.0 | 4.0 | 0.00 | 0.00 | 0.00 | 92 | 1008.8 |
| 20260509103052 | 83 | 0 | 0.0 | 4.0 | 0.00 | 0.00 | 0.00 | 92 | 1008.9 |
| 20260509102540 | 83 | 0 | 0.0 | 7.0 | 0.00 | 0.00 | 0.00 | 93 | 1008.7 |
| 20260509102041 | 83 | 0 | 2.0 | 7.0 | 0.00 | 0.00 | 0.00 | 93 | 1008.3 |
| 20260509101555 | 83 | 120 | 2.0 | 7.0 | 0.00 | 0.00 | 0.00 | 93 | 1008.1 |
| 20260509101040 | 83 | 98 | 2.0 | 7.0 | 0.00 | 0.00 | 0.00 | 92 | 1007.9 |
| 20260509100540 | 83 | 89 | 3.0 | 7.0 | 0.00 | 0.00 | 0.00 | 92 | 1007.8 |
| 20260509095540 | 83 | 59 | 2.0 | 6.0 | 0.00 | 0.00 | 0.00 | 93 | 1007.6 |
| 20260509095041 | 83 | 0 | 2.0 | 6.0 | 0.00 | 0.00 | 0.00 | 93 | 1007.7 |
| 20260509094551 | 83 | 87 | 3.0 | 8.0 | 0.00 | 0.00 | 0.00 | 93 | 1007.6 |
| 20260509094041 | 83 | 49 | 2.0 | 8.0 | 0.00 | 0.00 | 0.00 | 93 | 1007.6 |
| 20260509093540 | 83 | 100 | 3.0 | 8.0 | 0.00 | 0.00 | 0.00 | 93 | 1007.7 |
| 20260509093050 | 83 | 61 | 2.0 | 5.0 | 0.00 | 0.00 | 0.00 | 93 | 1007.8 |
| 20260509092542 | 83 | 313 | 1.0 | 5.0 | 0.00 | 0.00 | 0.00 | 93 | 1008.0 |
| 20260509092040 | 83 | 0 | 1.0 | 9.0 | 0.00 | 0.00 | 0.00 | 94 | 1007.9 |
| 20260509091554 | 83 | 355 | 0.0 | 9.0 | 0.00 | 0.00 | 0.00 | 94 | 1007.8 |
| 20260509091040 | 83 | 13 | 3.0 | 9.0 | 0.00 | 0.00 | 0.00 | 94 | 1007.8 |
| 20260509090540 | 83 | 306 | 2.0 | 9.0 | 0.00 | 0.00 | 0.00 | 94 | 1007.9 |
| 20260509090046 | 84 | 38 | 3.0 | 9.0 | 0.00 | 0.00 | 0.00 | 94 | 1007.8 |
| 20260509085540 | 84 | 51 | 4.0 | 9.0 | 0.00 | 0.00 | 0.00 | 94 | 1007.9 |
| 20260509085040 | 84 | 61 | 2.0 | 9.0 | 0.00 | 0.00 | 0.00 | 94 | 1008.0 |
| 20260509084550 | 84 | 59 | 4.0 | 9.0 | 0.00 | 0.00 | 0.00 | 93 | 1007.9 |
| 20260509084040 | 84 | 38 | 2.0 | 7.0 | 0.00 | 0.00 | 0.00 | 94 | 1008.0 |
| 20260509083541 | 84 | 57 | 1.0 | 7.0 | 0.00 | 0.00 | 0.00 | 94 | 1008.0 |
| 20260509083050 | 84 | 63 | 2.0 | 8.0 | 0.00 | 0.00 | 0.00 | 94 | 1007.9 |
| 20260509082538 | 84 | 32 | 4.0 | 8.0 | 0.00 | 0.00 | 0.00 | 94 | 1007.9 |
| 20260509082041 | 84 | 49 | 4.0 | 7.0 | 0.00 | 0.00 | 0.00 | 94 | 1008.2 |
| 20260509081550 | 84 | 79 | 1.0 | 6.0 | 0.00 | 0.00 | 0.00 | 94 | 1008.0 |
| 20260509081040 | 84 | 12 | 1.0 | 4.0 | 0.00 | 0.00 | 0.00 | 94 | 1008.1 |
| 20260509080540 | 84 | 84 | 0.0 | 7.0 | 0.00 | 0.00 | 0.00 | 94 | 1008.1 |
| 20260509080117 | 84 | 321 | 0.0 | 8.0 | 0.00 | 0.00 | 0.00 | 94 | 1008.0 |
| 20260509075543 | 84 | 0 | 2.0 | 9.0 | 0.00 | 0.00 | 0.00 | 94 | 1008.0 |
| 20260509075040 | 84 | 26 | 2.0 | 9.0 | 0.00 | 0.00 | 0.00 | 94 | 1007.8 |
| 20260509074543 | 84 | 97 | 4.0 | 12.0 | 0.00 | 0.00 | 0.00 | 94 | 1007.7 |
| 20260509074040 | 84 | 287 | 6.0 | 12.0 | 0.00 | 0.00 | 0.00 | 93 | 1007.8 |
| 20260509073539 | 84 | 9 | 6.0 | 10.0 | 0.00 | 0.00 | 0.00 | 93 | 1008.0 |
| 20260509073137 | 84 | 52 | 3.0 | 9.0 | 0.00 | 0.00 | 0.00 | 94 | 1008.2 |
| 20260509072540 | 84 | 50 | 2.0 | 7.0 | 0.00 | 0.00 | 0.00 | 94 | 1008.2 |
| 20260509072039 | 84 | 83 | 2.0 | 6.0 | 0.00 | 0.00 | 0.00 | 94 | 1008.3 |
| 20260509071550 | 84 | 24 | 1.0 | 5.0 | 0.00 | 0.00 | 0.00 | 94 | 1008.5 |
| 20260509071040 | 85 | 75 | 2.0 | 6.0 | 0.00 | 0.00 | 0.00 | 94 | 1008.6 |
| 20260509070541 | 85 | 82 | 2.0 | 6.0 | 0.00 | 0.00 | 0.00 | 94 | 1008.7 |
| 20260509070049 | 85 | 337 | 2.0 | 6.0 | 0.00 | 0.00 | 0.00 | 94 | 1008.7 |
| 20260509065542 | 85 | 337 | 2.0 | 6.0 | 0.00 | 0.00 | 0.00 | 94 | 1008.7 |
| 20260509065040 | 85 | 0 | 1.0 | 6.0 | 0.00 | 0.00 | 0.00 | 94 | 1008.6 |
| 20260509064550 | 85 | 0 | 2.0 | 6.0 | 0.00 | 0.00 | 0.00 | 94 | 1008.7 |
| 20260509064040 | 85 | 340 | 3.0 | 8.0 | 0.00 | 0.00 | 0.00 | 94 | 1008.7 |
| 20260509063540 | 85 | 0 | 2.0 | 9.0 | 0.00 | 0.00 | 0.00 | 94 | 1009.0 |
| 20260509063048 | 85 | 341 | 4.0 | 9.0 | 0.00 | 0.00 | 0.00 | 94 | 1009.0 |
| 20260509062540 | 85 | 0 | 1.0 | 5.0 | 0.00 | 0.00 | 0.00 | 94 | 1009.0 |
| 20260509062040 | 85 | 278 | 1.0 | 5.0 | 0.00 | 0.00 | 0.00 | 94 | 1008.9 |
| 20260509061553 | 85 | 43 | 1.0 | 10.0 | 0.00 | 0.00 | 0.00 | 94 | 1009.0 |
| 20260509061040 | 85 | 51 | 2.0 | 10.0 | 0.00 | 0.00 | 0.00 | 93 | 1008.8 |
| 20260509060542 | 85 | 0 | 2.0 | 10.0 | 0.00 | 0.00 | 0.00 | 93 | 1008.8 |
| 20260509060058 | 85 | 308 | 3.0 | 10.0 | 0.00 | 0.00 | 0.00 | 93 | 1008.8 |
| 20260509055540 | 85 | 343 | 2.0 | 9.0 | 0.00 | 0.00 | 0.00 | 93 | 1008.8 |
| 20260509055038 | 85 | 0 | 1.0 | 6.0 | 0.00 | 0.00 | 0.00 | 93 | 1008.9 |
| 20260509054605 | 85 | 90 | 1.0 | 8.0 | 0.00 | 0.00 | 0.00 | 93 | 1008.9 |
| 20260509054040 | 85 | 0 | 2.0 | 8.0 | 0.00 | 0.00 | 0.00 | 93 | 1008.9 |
| 20260509053543 | 85 | 352 | 1.0 | 10.0 | 0.00 | 0.00 | 0.00 | 93 | 1008.9 |
| 20260509053057 | 85 | 0 | 1.0 | 10.0 | 0.00 | 0.00 | 0.00 | 92 | 1008.9 |
| 20260509052538 | 86 | 42 | 1.0 | 10.0 | 0.00 | 0.00 | 0.00 | 92 | 1009.0 |
| 20260509052037 | 86 | 355 | 2.0 | 9.0 | 0.00 | 0.00 | 0.00 | 92 | 1009.0 |
| 20260509051603 | 86 | 326 | 3.0 | 9.0 | 0.00 | 0.00 | 0.00 | 92 | 1009.1 |
| 20260509051040 | 86 | 293 | 1.0 | 8.0 | 0.00 | 0.00 | 0.00 | 92 | 1009.1 |
| 20260509050540 | 86 | 140 | 1.0 | 8.0 | 0.00 | 0.00 | 0.00 | 92 | 1009.1 |
| 20260509050050 | 86 | 170 | 0.0 | 8.0 | 0.00 | 0.00 | 0.00 | 92 | 1009.2 |
| 20260509045539 | 86 | 305 | 2.0 | 8.0 | 0.00 | 0.00 | 0.00 | 91 | 1009.2 |
| 20260509045040 | 86 | 360 | 1.0 | 7.0 | 0.00 | 0.00 | 0.00 | 91 | 1009.2 |
| 20260509044555 | 86 | 64 | 2.0 | 6.0 | 0.00 | 0.00 | 0.00 | 91 | 1009.1 |
| 20260509044040 | 86 | 39 | 1.0 | 5.0 | 0.00 | 0.00 | 0.00 | 91 | 1009.0 |
| 20260509043538 | 86 | 0 | 1.0 | 5.0 | 0.00 | 0.00 | 0.00 | 91 | 1009.0 |
| 20260509043058 | 86 | 0 | 1.0 | 4.0 | 0.00 | 0.00 | 0.00 | 91 | 1008.8 |
| 20260509042539 | 86 | 318 | 1.0 | 6.0 | 0.00 | 0.00 | 0.00 | 90 | 1008.9 |
| 20260509042040 | 86 | 0 | 1.0 | 7.0 | 0.00 | 0.00 | 0.00 | 90 | 1008.9 |
| 20260509041553 | 86 | 279 | 2.0 | 7.0 | 0.00 | 0.00 | 0.00 | 90 | 1008.9 |
| 20260509041038 | 87 | 53 | 2.0 | 8.0 | 0.00 | 0.00 | 0.00 | 90 | 1008.8 |
| 20260509040539 | 87 | 48 | 1.0 | 8.0 | 0.00 | 0.00 | 0.00 | 90 | 1008.8 |
| 20260509040101 | 87 | 79 | 1.0 | 8.0 | 0.00 | 0.00 | 0.00 | 89 | 1009.0 |
| 20260509035539 | 87 | 93 | 2.0 | 8.0 | 0.00 | 0.00 | 0.00 | 89 | 1009.0 |
| 20260509035038 | 87 | 309 | 1.0 | 7.0 | 0.00 | 0.00 | 0.00 | 89 | 1009.0 |
| 20260509034548 | 87 | 347 | 1.0 | 7.0 | 0.00 | 0.00 | 0.00 | 89 | 1009.0 |
| 20260509034040 | 87 | 332 | 0.0 | 8.0 | 0.00 | 0.00 | 0.00 | 89 | 1008.9 |
| 20260509033540 | 87 | 321 | 2.0 | 8.0 | 0.00 | 0.00 | 0.00 | 89 | 1008.8 |
| 20260509033050 | 87 | 321 | 2.0 | 7.0 | 0.00 | 0.00 | 0.00 | 89 | 1008.7 |
| 20260509032540 | 87 | 58 | 2.0 | 8.0 | 0.00 | 0.00 | 0.00 | 89 | 1008.7 |
| 20260509032039 | 87 | 346 | 3.0 | 8.0 | 0.00 | 0.00 | 0.00 | 88 | 1008.5 |
| 20260509031549 | 87 | 355 | 3.0 | 7.0 | 0.00 | 0.00 | 0.00 | 88 | 1008.5 |
| 20260509031040 | 88 | 321 | 4.0 | 7.0 | 0.00 | 0.00 | 0.00 | 88 | 1008.4 |
| 20260509030539 | 88 | 319 | 1.0 | 5.0 | 0.00 | 0.00 | 0.00 | 88 | 1008.3 |
| 20260509030050 | 88 | 67 | 1.0 | 5.0 | 0.00 | 0.00 | 0.00 | 88 | 1008.2 |
| 20260509025539 | 87 | 0 | 1.0 | 6.0 | 0.00 | 0.00 | 0.00 | 88 | 1008.2 |
| 20260509025039 | 88 | 0 | 0.0 | 8.0 | 0.00 | 0.00 | 0.00 | 89 | 1008.1 |
| 20260509024550 | 88 | 26 | 2.0 | 9.0 | 0.00 | 0.00 | 0.00 | 88 | 1007.9 |
| 20260509024039 | 87 | 22 | 1.0 | 9.0 | 0.00 | 0.00 | 0.00 | 89 | 1007.9 |
| 20260509023541 | 87 | 360 | 2.0 | 9.0 | 0.00 | 0.00 | 0.00 | 89 | 1007.9 |
| 20260509023047 | 88 | 0 | 2.0 | 8.0 | 0.00 | 0.00 | 0.00 | 88 | 1007.7 |
| 20260509022538 | 88 | 62 | 0.0 | 8.0 | 0.00 | 0.00 | 0.00 | 89 | 1007.5 |
| 20260509022040 | 88 | 313 | 0.0 | 5.0 | 0.00 | 0.00 | 0.00 | 89 | 1007.4 |
| 20260509021548 | 88 | 54 | 1.0 | 5.0 | 0.00 | 0.00 | 0.00 | 88 | 1007.3 |
| 20260509021040 | 88 | 308 | 1.0 | 9.0 | 0.00 | 0.00 | 0.00 | 88 | 1007.3 |
| 20260509020540 | 88 | 0 | 0.0 | 9.0 | 0.00 | 0.00 | 0.00 | 88 | 1007.1 |
| 20260509020048 | 88 | 44 | 2.0 | 9.0 | 0.00 | 0.00 | 0.00 | 88 | 1007.1 |
| 20260509015540 | 88 | 43 | 1.0 | 9.0 | 0.00 | 0.00 | 0.00 | 88 | 1007.3 |
| 20260509015040 | 88 | 321 | 0.0 | 9.0 | 0.00 | 0.00 | 0.00 | 88 | 1007.3 |
| 20260509014549 | 88 | 0 | 1.0 | 9.0 | 0.00 | 0.00 | 0.00 | 89 | 1007.2 |
| 20260509014042 | 88 | 329 | 3.0 | 9.0 | 0.00 | 0.00 | 0.00 | 88 | 1007.2 |
| 20260509013540 | 88 | 342 | 2.0 | 8.0 | 0.00 | 0.00 | 0.00 | 88 | 1007.3 |
| 20260509013100 | 89 | 321 | 2.0 | 9.0 | 0.00 | 0.00 | 0.00 | 88 | 1007.3 |
| 20260509012539 | 89 | 346 | 4.0 | 10.0 | 0.00 | 0.00 | 0.00 | 88 | 1007.4 |
| 20260509012039 | 89 | 360 | 4.0 | 10.0 | 0.00 | 0.00 | 0.00 | 88 | 1007.2 |
| 20260509011549 | 89 | 330 | 5.0 | 10.0 | 0.00 | 0.00 | 0.00 | 88 | 1007.1 |
| 20260509011039 | 89 | 355 | 3.0 | 11.0 | 0.00 | 0.00 | 0.00 | 88 | 1007.1 |
| 20260509010539 | 89 | 20 | 6.0 | 11.0 | 0.00 | 0.00 | 0.00 | 87 | 1007.2 |
| 20260509010045 | 89 | 338 | 4.0 | 10.0 | 0.00 | 0.00 | 0.00 | 87 | 1007.2 |
| 20260509005539 | 90 | 339 | 3.0 | 10.0 | 0.00 | 0.00 | 0.00 | 87 | 1007.1 |
| 20260509005042 | 90 | 344 | 3.0 | 13.0 | 0.00 | 0.00 | 0.00 | 87 | 1006.9 |
| 20260509004608 | 90 | 252 | 3.0 | 13.0 | 0.00 | 0.00 | 0.00 | 86 | 1006.9 |
| 20260509004041 | 90 | 100 | 4.0 | 11.0 | 0.00 | 0.00 | 0.00 | 86 | 1007.0 |
| 20260509003539 | 91 | 344 | 7.0 | 11.0 | 0.00 | 0.00 | 0.00 | 86 | 1007.0 |
| 20260509003050 | 91 | 326 | 4.0 | 9.0 | 0.00 | 0.00 | 0.00 | 85 | 1007.0 |
| 20260509002541 | 92 | 336 | 2.0 | 13.0 | 0.00 | 0.00 | 0.00 | 85 | 1007.0 |
| 20260509002040 | 92 | 36 | 5.0 | 13.0 | 0.00 | 0.00 | 0.00 | 85 | 1006.9 |
| 20260509001543 | 92 | 352 | 2.0 | 11.0 | 0.00 | 0.00 | 0.00 | 84 | 1006.7 |
| 20260509001042 | 93 | 309 | 6.0 | 11.0 | 0.00 | 0.00 | 0.00 | 84 | 1006.7 |
| 20260509000539 | 93 | 15 | 3.0 | 11.0 | 0.00 | 0.00 | 0.00 | 84 | 1006.5 |
| 20260509000051 | 94 | 38 | 4.0 | 12.0 | 0.00 | 0.00 | 0.00 | 83 | 1006.4 |
| 20260508235538 | 94 | 332 | 5.0 | 12.0 | 0.00 | 0.00 | 0.00 | 83 | 1006.2 |
| 20260508235037 | 95 | 62 | 6.0 | 11.0 | 0.00 | 0.00 | 0.00 | 82 | 1006.1 |
| 20260508234552 | 95 | 279 | 2.0 | 10.0 | 0.00 | 0.00 | 0.00 | 81 | 1006.1 |
| 20260508234037 | 96 | 345 | 4.0 | 10.0 | 0.00 | 0.00 | 0.00 | 76 | 1006.1 |
| 20260508233540 | 96 | 74 | 4.0 | 9.0 | 0.00 | 0.00 | 0.00 | 76 | 1006.1 |
| 20260508233056 | 96 | 21 | 2.0 | 8.0 | 0.00 | 0.00 | 0.00 | 76 | 1006.0 |
| 20260508232540 | 96 | 105 | 2.0 | 11.0 | 0.00 | 0.00 | 0.00 | 76 | 1006.1 |
| 20260508232040 | 96 | 84 | 5.0 | 11.0 | 0.00 | 0.00 | 0.00 | 76 | 1006.1 |
| 20260508231548 | 97 | 55 | 4.0 | 9.0 | 0.00 | 0.00 | 0.00 | 75 | 1006.1 |
| 20260508231039 | 97 | 105 | 4.0 | 9.0 | 0.00 | 0.00 | 0.00 | 75 | 1006.2 |
| 20260508230542 | 97 | 92 | 3.0 | 11.0 | 0.00 | 0.00 | 0.00 | 75 | 1006.1 |
| 20260508230057 | 97 | 101 | 4.0 | 11.0 | 0.00 | 0.00 | 0.00 | 74 | 1006.2 |
| 20260508225540 | 97 | 115 | 5.0 | 11.0 | 0.00 | 0.00 | 0.00 | 74 | 1006.4 |
| 20260508225041 | 97 | 106 | 6.0 | 9.0 | 0.00 | 0.00 | 0.00 | 74 | 1006.2 |
| 20260508224547 | 97 | 40 | 3.0 | 9.0 | 0.00 | 0.00 | 0.00 | 74 | 1006.3 |
| 20260508224037 | 97 | 47 | 4.0 | 11.0 | 0.00 | 0.00 | 0.00 | 74 | 1006.5 |
| 20260508223540 | 97 | 143 | 6.0 | 11.0 | 0.00 | 0.00 | 0.00 | 73 | 1006.5 |
| 20260508223048 | 97 | 90 | 4.0 | 9.0 | 0.00 | 0.00 | 0.00 | 74 | 1006.5 |
| 20260508222542 | 97 | 51 | 4.0 | 9.0 | 0.00 | 0.00 | 0.00 | 74 | 1006.6 |
| 20260508222040 | 98 | 30 | 4.0 | 11.0 | 0.00 | 0.00 | 0.00 | 74 | 1006.6 |
| 20260508221547 | 98 | 90 | 5.0 | 11.0 | 0.00 | 0.00 | 0.00 | 73 | 1006.6 |
| 20260508221041 | 98 | 84 | 6.0 | 10.0 | 0.00 | 0.00 | 0.00 | 72 | 1006.6 |
| 20260508220540 | 98 | 78 | 7.0 | 11.0 | 0.00 | 0.00 | 0.00 | 73 | 1006.7 |
| 20260508220054 | 98 | 66 | 5.0 | 13.0 | 0.00 | 0.00 | 0.00 | 73 | 1006.7 |
| 20260508215542 | 98 | 63 | 7.0 | 13.0 | 0.00 | 0.00 | 0.00 | 73 | 1006.6 |
| 20260508215038 | 98 | 54 | 4.0 | 11.0 | 0.00 | 0.00 | 0.00 | 73 | 1006.7 |
| 20260508214549 | 98 | 98 | 6.0 | 11.0 | 0.00 | 0.00 | 0.00 | 73 | 1006.7 |
| 20260508214040 | 99 | 40 | 4.0 | 11.0 | 0.00 | 0.00 | 0.00 | 72 | 1006.7 |
| 20260508213541 | 99 | 86 | 3.0 | 16.0 | 0.00 | 0.00 | 0.00 | 72 | 1006.7 |
| 20260508213044 | 98 | 86 | 5.0 | 16.0 | 0.00 | 0.00 | 0.00 | 71 | 1006.8 |
| 20260508212540 | 98 | 38 | 4.0 | 13.0 | 0.00 | 0.00 | 0.00 | 72 | 1006.8 |
| 20260508212038 | 98 | 344 | 6.0 | 13.0 | 0.00 | 0.00 | 0.00 | 73 | 1006.9 |
| 20260508211554 | 98 | 55 | 3.0 | 12.0 | 0.00 | 0.00 | 0.00 | 72 | 1007.0 |
| 20260508211040 | 98 | 83 | 4.0 | 12.0 | 0.00 | 0.00 | 0.00 | 72 | 1007.0 |
| 20260508210540 | 99 | 64 | 4.0 | 13.0 | 0.00 | 0.00 | 0.00 | 72 | 1007.1 |
| 20260508210107 | 99 | 129 | 4.0 | 13.0 | 0.00 | 0.00 | 0.00 | 72 | 1007.2 |
| 20260508205538 | 99 | 45 | 3.0 | 13.0 | 0.00 | 0.00 | 0.00 | 72 | 1007.3 |
| 20260508205039 | 99 | 95 | 5.0 | 10.0 | 0.00 | 0.00 | 0.00 | 73 | 1007.4 |
| 20260508204549 | 99 | 62 | 3.0 | 9.0 | 0.00 | 0.00 | 0.00 | 72 | 1007.4 |
| 20260508204040 | 99 | 111 | 5.0 | 10.0 | 0.00 | 0.00 | 0.00 | 72 | 1007.6 |
| 20260508203540 | 99 | 100 | 3.0 | 10.0 | 0.00 | 0.00 | 0.00 | 72 | 1007.6 |
| 20260508203048 | 99 | 111 | 6.0 | 10.0 | 0.00 | 0.00 | 0.00 | 73 | 1007.6 |
| 20260508202538 | 98 | 0 | 1.0 | 10.0 | 0.00 | 0.00 | 0.00 | 73 | 1007.6 |
| 20260508202043 | 99 | 77 | 6.0 | 10.0 | 0.00 | 0.00 | 0.00 | 73 | 1007.7 |
| 20260508201550 | 99 | 0 | 2.0 | 9.0 | 0.00 | 0.00 | 0.00 | 73 | 1007.8 |
| 20260508201037 | 99 | 76 | 4.0 | 9.0 | 0.00 | 0.00 | 0.00 | 74 | 1007.8 |
| 20260508200540 | 97 | 36 | 4.0 | 9.0 | 0.00 | 0.00 | 0.00 | 75 | 1008.0 |
| 20260508200050 | 96 | 108 | 1.0 | 9.0 | 0.00 | 0.00 | 0.00 | 76 | 1008.1 |
| 20260508195539 | 97 | 86 | 4.0 | 9.0 | 0.00 | 0.00 | 0.00 | 74 | 1008.2 |
| 20260508195037 | 98 | 0 | 2.0 | 10.0 | 0.00 | 0.00 | 0.00 | 74 | 1008.2 |
| 20260508194547 | 98 | 61 | 2.0 | 10.0 | 0.00 | 0.00 | 0.00 | 74 | 1008.3 |
| 20260508194039 | 99 | 52 | 3.0 | 8.0 | 0.00 | 0.00 | 0.00 | 73 | 1008.3 |
| 20260508193539 | 98 | 24 | 2.0 | 7.0 | 0.00 | 0.00 | 0.00 | 74 | 1008.4 |
| 20260508193054 | 98 | 279 | 0.0 | 7.0 | 0.00 | 0.00 | 0.00 | 74 | 1008.5 |
| 20260508192540 | 97 | 51 | 1.0 | 9.0 | 0.00 | 0.00 | 0.00 | 74 | 1008.6 |
| 20260508192042 | 98 | 44 | 2.0 | 10.0 | 0.00 | 0.00 | 0.00 | 74 | 1008.7 |
| 20260508191548 | 98 | 57 | 4.0 | 10.0 | 0.00 | 0.00 | 0.00 | 74 | 1008.8 |
| 20260508191037 | 97 | 331 | 2.0 | 9.0 | 0.00 | 0.00 | 0.00 | 75 | 1008.8 |
| 20260508190540 | 96 | 147 | 3.0 | 9.0 | 0.00 | 0.00 | 0.00 | 75 | 1008.9 |
| 20260508190053 | 96 | 121 | 3.0 | 9.0 | 0.00 | 0.00 | 0.00 | 75 | 1009.0 |
| 20260508185540 | 97 | 157 | 4.0 | 8.0 | 0.00 | 0.00 | 0.00 | 75 | 1009.0 |
| 20260508185040 | 97 | 116 | 3.0 | 10.0 | 0.00 | 0.00 | 0.00 | 76 | 1009.0 |
| 20260508184609 | 97 | 85 | 4.0 | 10.0 | 0.00 | 0.00 | 0.00 | 76 | 1009.1 |
| 20260508184039 | 97 | 128 | 3.0 | 7.0 | 0.00 | 0.00 | 0.00 | 75 | 1009.2 |
| 20260508183539 | 97 | 292 | 2.0 | 8.0 | 0.00 | 0.00 | 0.00 | 75 | 1009.3 |
| 20260508183053 | 95 | 0 | 2.0 | 8.0 | 0.00 | 0.00 | 0.00 | 76 | 1009.4 |
| 20260508182539 | 96 | 112 | 3.0 | 8.0 | 0.00 | 0.00 | 0.00 | 75 | 1009.6 |
| 20260508182039 | 95 | 56 | 1.0 | 6.0 | 0.00 | 0.00 | 0.00 | 76 | 1009.6 |
| 20260508181605 | 95 | 0 | 1.0 | 6.0 | 0.00 | 0.00 | 0.00 | 77 | 1009.7 |
| 20260508181039 | 95 | 308 | 2.0 | 6.0 | 0.00 | 0.00 | 0.00 | 76 | 1009.8 |
| 20260508180540 | 95 | 58 | 1.0 | 5.0 | 0.00 | 0.00 | 0.00 | 76 | 1009.9 |
| 20260508180052 | 95 | 355 | 1.0 | 6.0 | 0.00 | 0.00 | 0.00 | 77 | 1009.9 |
| 20260508175540 | 95 | 120 | 1.0 | 7.0 | 0.00 | 0.00 | 0.00 | 77 | 1009.9 |
| 20260508175039 | 94 | 82 | 2.0 | 7.0 | 0.00 | 0.00 | 0.00 | 77 | 1010.0 |
| 20260508174547 | 95 | 45 | 1.0 | 6.0 | 0.00 | 0.00 | 0.00 | 77 | 1010.1 |
| 20260508174052 | 95 | 163 | 2.0 | 6.0 | 0.00 | 0.00 | 0.00 | 77 | 1010.1 |
| 20260508173542 | 94 | 93 | 1.0 | 7.0 | 0.00 | 0.00 | 0.00 | 78 | 1010.1 |
| 20260508173051 | 94 | 111 | 2.0 | 7.0 | 0.00 | 0.00 | 0.00 | 78 | 1010.1 |
| 20260508172540 | 94 | 118 | 2.0 | 6.0 | 0.00 | 0.00 | 0.00 | 79 | 1010.2 |
| 20260508172039 | 92 | 74 | 2.0 | 7.0 | 0.00 | 0.00 | 0.00 | 80 | 1010.3 |
| 20260508171547 | 93 | 184 | 3.0 | 7.0 | 0.00 | 0.00 | 0.00 | 79 | 1010.3 |
| 20260508171042 | 93 | 221 | 0.0 | 4.0 | 0.00 | 0.00 | 0.00 | 79 | 1010.5 |
| 20260508170540 | 93 | 207 | 1.0 | 6.0 | 0.00 | 0.00 | 0.00 | 79 | 1010.4 |
| 20260508170051 | 93 | 0 | 2.0 | 8.0 | 0.00 | 0.00 | 0.00 | 78 | 1010.6 |
| 20260508165540 | 93 | 125 | 3.0 | 8.0 | 0.00 | 0.00 | 0.00 | 78 | 1010.7 |
| 20260508165036 | 92 | 109 | 2.0 | 7.0 | 0.00 | 0.00 | 0.00 | 79 | 1010.8 |
| 20260508164557 | 92 | 188 | 3.0 | 7.0 | 0.00 | 0.00 | 0.00 | 79 | 1011.0 |
| 20260508164040 | 92 | 144 | 1.0 | 7.0 | 0.00 | 0.00 | 0.00 | 79 | 1010.9 |
| 20260508163542 | 92 | 99 | 3.0 | 8.0 | 0.00 | 0.00 | 0.00 | 80 | 1011.0 |
| 20260508163046 | 91 | 5 | 3.0 | 8.0 | 0.00 | 0.00 | 0.00 | 80 | 1011.1 |
| 20260508162539 | 91 | 34 | 2.0 | 5.0 | 0.00 | 0.00 | 0.00 | 81 | 1011.1 |
| 20260508162040 | 91 | 144 | 1.0 | 5.0 | 0.00 | 0.00 | 0.00 | 81 | 1011.1 |
| 20260508161549 | 91 | 151 | 1.0 | 4.0 | 0.00 | 0.00 | 0.00 | 81 | 1011.3 |
| 20260508161039 | 91 | 309 | 2.0 | 8.0 | 0.00 | 0.00 | 0.00 | 81 | 1011.2 |
| 20260508160538 | 91 | 60 | 3.0 | 8.0 | 0.00 | 0.00 | 0.00 | 82 | 1011.3 |
| 20260508160047 | 90 | 97 | 1.0 | 7.0 | 0.00 | 0.00 | 0.00 | 83 | 1011.3 |
| 20260508155537 | 90 | 25 | 2.0 | 7.0 | 0.00 | 0.00 | 0.00 | 83 | 1011.3 |
| 20260508155042 | 89 | 150 | 3.0 | 7.0 | 0.00 | 0.00 | 0.00 | 83 | 1011.4 |
| 20260508154549 | 89 | 55 | 3.0 | 8.0 | 0.00 | 0.00 | 0.00 | 83 | 1011.4 |
| 20260508154039 | 89 | 58 | 3.0 | 8.0 | 0.00 | 0.00 | 0.00 | 84 | 1011.5 |
| 20260508153540 | 89 | 67 | 2.0 | 7.0 | 0.00 | 0.00 | 0.00 | 83 | 1011.5 |
| 20260508153053 | 89 | 170 | 3.0 | 8.0 | 0.00 | 0.00 | 0.00 | 84 | 1011.5 |